Year,Month,Day,Hour,Minute,Value (Times are PST for temperature in C)
2014,11,13,00,00,4.60
2014,11,13,00,01,4.60
2014,11,13,00,02,4.50
2014,11,13,00,03,4.50
2014,11,13,00,04,4.50
2014,11,13,00,05,4.40
2014,11,13,00,06,4.40
2014,11,13,00,07,4.40
2014,11,13,00,08,4.40
2014,11,13,00,09,4.40
2014,11,13,00,10,4.40
2014,11,13,00,11,4.40
2014,11,13,00,12,4.40
2014,11,13,00,13,4.40
2014,11,13,00,14,4.40
2014,11,13,00,15,4.40
2014,11,13,00,16,4.40
2014,11,13,00,17,4.40
2014,11,13,00,18,4.40
2014,11,13,00,19,4.40
2014,11,13,00,20,4.40
2014,11,13,00,21,4.40
2014,11,13,00,22,4.40
2014,11,13,00,23,4.40
2014,11,13,00,24,4.40
2014,11,13,00,25,4.40
2014,11,13,00,26,4.40
2014,11,13,00,27,4.40
2014,11,13,00,28,4.40
2014,11,13,00,29,4.40
2014,11,13,00,30,4.40
2014,11,13,00,31,4.30
2014,11,13,00,32,4.30
2014,11,13,00,33,4.20
2014,11,13,00,34,4.20
2014,11,13,00,35,4.20
2014,11,13,00,36,4.20
2014,11,13,00,37,4.20
2014,11,13,00,38,4.10
2014,11,13,00,39,4.10
2014,11,13,00,40,4.10
2014,11,13,00,41,4.00
2014,11,13,00,42,4.00
2014,11,13,00,43,4.00
2014,11,13,00,44,4.00
2014,11,13,00,45,3.90
2014,11,13,00,46,3.90
2014,11,13,00,47,3.90
2014,11,13,00,48,3.90
2014,11,13,00,49,3.90
2014,11,13,00,50,3.90
2014,11,13,00,51,3.90
2014,11,13,00,52,3.90
2014,11,13,00,53,3.90
2014,11,13,00,54,3.90
2014,11,13,00,55,3.90
2014,11,13,00,56,3.90
2014,11,13,00,57,3.90
2014,11,13,00,58,3.90
2014,11,13,00,59,3.90
2014,11,13,01,00,3.80
2014,11,13,01,01,3.80
2014,11,13,01,02,3.80
2014,11,13,01,03,3.80
2014,11,13,01,04,3.80
2014,11,13,01,05,3.80
2014,11,13,01,06,3.80
2014,11,13,01,07,3.80
2014,11,13,01,08,3.80
2014,11,13,01,09,3.80
2014,11,13,01,10,3.80
2014,11,13,01,11,3.80
2014,11,13,01,12,3.90
2014,11,13,01,13,3.90
2014,11,13,01,14,3.90
2014,11,13,01,15,3.90
2014,11,13,01,16,3.90
2014,11,13,01,17,3.90
2014,11,13,01,18,3.90
2014,11,13,01,19,3.90
2014,11,13,01,20,3.80
2014,11,13,01,21,3.80
2014,11,13,01,22,3.80
2014,11,13,01,23,3.80
2014,11,13,01,24,3.80
2014,11,13,01,25,3.80
2014,11,13,01,26,3.80
2014,11,13,01,27,3.80
2014,11,13,01,28,3.80
2014,11,13,01,29,3.70
2014,11,13,01,30,3.70
2014,11,13,01,31,3.70
2014,11,13,01,32,3.70
2014,11,13,01,33,3.70
2014,11,13,01,34,3.70
2014,11,13,01,35,3.70
2014,11,13,01,36,3.70
2014,11,13,01,37,3.70
2014,11,13,01,38,3.70
2014,11,13,01,39,3.70
2014,11,13,01,40,3.70
2014,11,13,01,41,3.70
2014,11,13,01,42,3.70
2014,11,13,01,43,3.70
2014,11,13,01,44,3.70
2014,11,13,01,45,3.70
2014,11,13,01,46,3.70
2014,11,13,01,47,3.60
2014,11,13,01,48,3.60
2014,11,13,01,49,3.60
2014,11,13,01,50,3.60
2014,11,13,01,51,3.60
2014,11,13,01,52,3.50
2014,11,13,01,53,3.50
2014,11,13,01,54,3.50
2014,11,13,01,55,3.50
2014,11,13,01,56,3.50
2014,11,13,01,57,3.50
2014,11,13,01,58,3.40
2014,11,13,01,59,3.40
2014,11,13,02,00,3.40
2014,11,13,02,01,3.40
2014,11,13,02,02,3.40
2014,11,13,02,03,3.40
2014,11,13,02,04,3.40
2014,11,13,02,05,3.40
2014,11,13,02,06,3.40
2014,11,13,02,07,3.40
2014,11,13,02,08,3.40
2014,11,13,02,09,3.40
2014,11,13,02,10,3.40
2014,11,13,02,11,3.40
2014,11,13,02,12,3.40
2014,11,13,02,13,3.40
2014,11,13,02,14,3.40
2014,11,13,02,15,3.40
2014,11,13,02,16,3.40
2014,11,13,02,17,3.40
2014,11,13,02,18,3.40
2014,11,13,02,19,3.50
2014,11,13,02,20,3.50
2014,11,13,02,21,3.50
2014,11,13,02,22,3.50
2014,11,13,02,23,3.50
2014,11,13,02,24,3.50
2014,11,13,02,25,3.50
2014,11,13,02,26,3.50
2014,11,13,02,27,3.50
2014,11,13,02,28,3.40
2014,11,13,02,29,3.40
2014,11,13,02,30,3.40
2014,11,13,02,31,3.40
2014,11,13,02,32,3.40
2014,11,13,02,33,3.40
2014,11,13,02,34,3.40
2014,11,13,02,35,3.40
2014,11,13,02,36,3.40
2014,11,13,02,37,3.40
2014,11,13,02,38,3.30
2014,11,13,02,39,3.30
2014,11,13,02,40,3.30
2014,11,13,02,41,3.30
2014,11,13,02,42,3.30
2014,11,13,02,43,3.30
2014,11,13,02,44,3.30
2014,11,13,02,45,3.30
2014,11,13,02,46,3.30
2014,11,13,02,47,3.30
2014,11,13,02,48,3.30
2014,11,13,02,49,3.30
2014,11,13,02,50,3.30
2014,11,13,02,51,3.30
2014,11,13,02,52,3.30
2014,11,13,02,53,3.30
2014,11,13,02,54,3.30
2014,11,13,02,55,3.30
2014,11,13,02,56,3.30
2014,11,13,02,57,3.30
2014,11,13,02,58,3.30
2014,11,13,02,59,3.30
2014,11,13,03,00,3.30
2014,11,13,03,01,3.30
2014,11,13,03,02,3.30
2014,11,13,03,03,3.30
2014,11,13,03,04,3.30
2014,11,13,03,05,3.20
2014,11,13,03,06,3.20
2014,11,13,03,07,3.20
2014,11,13,03,08,3.20
2014,11,13,03,09,3.20
2014,11,13,03,10,3.20
2014,11,13,03,11,3.20
2014,11,13,03,12,3.20
2014,11,13,03,13,3.20
2014,11,13,03,14,3.20
2014,11,13,03,15,3.20
2014,11,13,03,16,3.20
2014,11,13,03,17,3.20
2014,11,13,03,18,3.10
2014,11,13,03,19,3.10
2014,11,13,03,20,3.10
2014,11,13,03,21,3.10
2014,11,13,03,22,3.10
2014,11,13,03,23,3.10
2014,11,13,03,24,3.10
2014,11,13,03,25,3.10
2014,11,13,03,26,3.10
2014,11,13,03,27,3.10
2014,11,13,03,28,3.10
2014,11,13,03,29,3.10
2014,11,13,03,30,3.10
2014,11,13,03,31,3.10
2014,11,13,03,32,3.10
2014,11,13,03,33,3.20
2014,11,13,03,34,3.20
2014,11,13,03,35,3.20
2014,11,13,03,36,3.20
2014,11,13,03,37,3.20
2014,11,13,03,38,3.20
2014,11,13,03,39,3.10
2014,11,13,03,40,3.10
2014,11,13,03,41,3.10
2014,11,13,03,42,3.10
2014,11,13,03,43,3.10
2014,11,13,03,44,3.10
2014,11,13,03,45,3.10
2014,11,13,03,46,3.10
2014,11,13,03,47,3.10
2014,11,13,03,48,3.20
2014,11,13,03,49,3.20
2014,11,13,03,50,3.20
2014,11,13,03,51,3.20
2014,11,13,03,52,3.20
2014,11,13,03,53,3.20
2014,11,13,03,54,3.10
2014,11,13,03,55,3.10
2014,11,13,03,56,3.10
2014,11,13,03,57,3.10
2014,11,13,03,58,3.10
2014,11,13,03,59,3.10
2014,11,13,04,00,3.10
2014,11,13,04,01,3.10
2014,11,13,04,02,3.10
2014,11,13,04,03,3.10
2014,11,13,04,04,3.10
2014,11,13,04,05,3.10
2014,11,13,04,06,3.10
2014,11,13,04,07,3.10
2014,11,13,04,08,3.10
2014,11,13,04,09,3.10
2014,11,13,04,10,3.10
2014,11,13,04,11,3.10
2014,11,13,04,12,3.10
2014,11,13,04,13,3.10
2014,11,13,04,14,3.10
2014,11,13,04,15,3.10
2014,11,13,04,16,3.10
2014,11,13,04,17,3.10
2014,11,13,04,18,3.10
2014,11,13,04,19,3.10
2014,11,13,04,20,3.10
2014,11,13,04,21,3.10
2014,11,13,04,22,3.00
2014,11,13,04,23,2.90
2014,11,13,04,24,2.90
2014,11,13,04,25,2.90
2014,11,13,04,26,2.90
2014,11,13,04,27,2.90
2014,11,13,04,28,2.90
2014,11,13,04,29,2.90
2014,11,13,04,30,2.90
2014,11,13,04,31,2.90
2014,11,13,04,32,2.90
2014,11,13,04,33,2.90
2014,11,13,04,34,3.00
2014,11,13,04,35,3.10
2014,11,13,04,36,3.10
2014,11,13,04,37,3.10
2014,11,13,04,38,3.00
2014,11,13,04,39,2.90
2014,11,13,04,40,2.90
2014,11,13,04,41,2.90
2014,11,13,04,42,2.90
2014,11,13,04,43,2.90
2014,11,13,04,44,3.10
2014,11,13,04,45,3.10
2014,11,13,04,46,3.10
2014,11,13,04,47,3.10
2014,11,13,04,48,3.10
2014,11,13,04,49,3.10
2014,11,13,04,50,3.10
2014,11,13,04,51,3.10
2014,11,13,04,52,3.10
2014,11,13,04,53,3.10
2014,11,13,04,54,3.10
2014,11,13,04,55,3.10
2014,11,13,04,56,3.10
2014,11,13,04,57,3.10
2014,11,13,04,58,3.00
2014,11,13,04,59,2.90
2014,11,13,05,00,2.90
2014,11,13,05,01,2.90
2014,11,13,05,02,2.90
2014,11,13,05,03,2.90
2014,11,13,05,04,2.90
2014,11,13,05,05,2.90
2014,11,13,05,06,2.90
2014,11,13,05,07,2.90
2014,11,13,05,08,2.90
2014,11,13,05,09,2.90
2014,11,13,05,10,2.90
2014,11,13,05,11,2.90
2014,11,13,05,12,2.90
2014,11,13,05,13,2.90
2014,11,13,05,14,2.90
2014,11,13,05,15,2.90
2014,11,13,05,16,2.90
2014,11,13,05,17,2.90
2014,11,13,05,18,2.90
2014,11,13,05,19,2.90
2014,11,13,05,20,2.90
2014,11,13,05,21,2.90
2014,11,13,05,22,2.90
2014,11,13,05,23,2.90
2014,11,13,05,24,2.90
2014,11,13,05,25,2.90
2014,11,13,05,26,2.90
2014,11,13,05,27,2.90
2014,11,13,05,28,2.90
2014,11,13,05,29,2.90
2014,11,13,05,30,2.90
2014,11,13,05,31,2.90
2014,11,13,05,32,2.90
2014,11,13,05,33,2.90
2014,11,13,05,34,2.90
2014,11,13,05,35,2.90
2014,11,13,05,36,2.90
2014,11,13,05,37,2.90
2014,11,13,05,38,2.90
2014,11,13,05,39,2.90
2014,11,13,05,40,2.90
2014,11,13,05,41,2.90
2014,11,13,05,42,2.80
2014,11,13,05,43,2.80
2014,11,13,05,44,2.80
2014,11,13,05,45,2.90
2014,11,13,05,46,2.90
2014,11,13,05,47,2.90
2014,11,13,05,48,2.90
2014,11,13,05,49,2.90
2014,11,13,05,50,2.90
2014,11,13,05,51,2.90
2014,11,13,05,52,2.90
2014,11,13,05,53,2.90
2014,11,13,05,54,2.90
2014,11,13,05,55,2.90
2014,11,13,05,56,2.90
2014,11,13,05,57,2.90
2014,11,13,05,58,2.90
2014,11,13,05,59,2.90
2014,11,13,06,00,2.90
2014,11,13,06,01,2.90
2014,11,13,06,02,2.90
2014,11,13,06,03,2.90
2014,11,13,06,04,2.90
2014,11,13,06,05,2.90
2014,11,13,06,06,2.90
2014,11,13,06,07,2.90
2014,11,13,06,08,2.90
2014,11,13,06,09,3.00
2014,11,13,06,10,3.10
2014,11,13,06,11,3.10
2014,11,13,06,12,3.10
2014,11,13,06,13,3.10
2014,11,13,06,14,3.10
2014,11,13,06,15,3.10
2014,11,13,06,16,3.10
2014,11,13,06,17,3.10
2014,11,13,06,18,3.10
2014,11,13,06,19,3.10
2014,11,13,06,20,3.10
2014,11,13,06,21,3.10
2014,11,13,06,22,3.10
2014,11,13,06,23,3.10
2014,11,13,06,24,3.10
2014,11,13,06,25,3.10
2014,11,13,06,26,3.10
2014,11,13,06,27,3.10
2014,11,13,06,28,3.10
2014,11,13,06,29,3.10
2014,11,13,06,30,3.10
2014,11,13,06,31,3.10
2014,11,13,06,32,3.10
2014,11,13,06,33,3.10
2014,11,13,06,34,3.10
2014,11,13,06,35,3.10
2014,11,13,06,36,3.10
2014,11,13,06,37,3.10
2014,11,13,06,38,3.10
2014,11,13,06,39,3.10
2014,11,13,06,40,3.10
2014,11,13,06,41,3.10
2014,11,13,06,42,3.10
2014,11,13,06,43,3.10
2014,11,13,06,44,3.10
2014,11,13,06,45,3.10
2014,11,13,06,46,3.10
2014,11,13,06,47,3.10
2014,11,13,06,48,3.10
2014,11,13,06,49,3.10
2014,11,13,06,50,3.10
2014,11,13,06,51,3.10
2014,11,13,06,52,3.00
2014,11,13,06,53,3.10
2014,11,13,06,54,3.10
2014,11,13,06,55,3.10
2014,11,13,06,56,3.10
2014,11,13,06,57,3.10
2014,11,13,06,58,3.10
2014,11,13,06,59,3.10
2014,11,13,07,00,3.10
2014,11,13,07,01,3.10
2014,11,13,07,02,3.10
2014,11,13,07,03,3.10
2014,11,13,07,04,3.10
2014,11,13,07,05,3.10
2014,11,13,07,06,3.10
2014,11,13,07,07,3.10
2014,11,13,07,08,3.10
2014,11,13,07,09,3.10
2014,11,13,07,10,3.10
2014,11,13,07,11,3.10
2014,11,13,07,12,3.10
2014,11,13,07,13,3.10
2014,11,13,07,14,3.10
2014,11,13,07,15,3.10
2014,11,13,07,16,3.10
2014,11,13,07,17,3.10
2014,11,13,07,18,3.10
2014,11,13,07,19,3.10
2014,11,13,07,20,3.20
2014,11,13,07,21,3.20
2014,11,13,07,22,3.20
2014,11,13,07,23,3.20
2014,11,13,07,24,3.20
2014,11,13,07,25,3.20
2014,11,13,07,26,3.20
2014,11,13,07,27,3.20
2014,11,13,07,28,3.20
2014,11,13,07,29,3.20
2014,11,13,07,30,3.20
2014,11,13,07,31,3.20
2014,11,13,07,32,3.10
2014,11,13,07,33,3.10
2014,11,13,07,34,3.10
2014,11,13,07,35,3.10
2014,11,13,07,36,3.20
2014,11,13,07,37,3.20
2014,11,13,07,38,3.20
2014,11,13,07,39,3.20
2014,11,13,07,40,3.20
2014,11,13,07,41,3.20
2014,11,13,07,42,3.20
2014,11,13,07,43,3.20
2014,11,13,07,44,3.20
2014,11,13,07,45,3.20
2014,11,13,07,46,3.20
2014,11,13,07,47,3.20
2014,11,13,07,48,3.20
2014,11,13,07,49,3.20
2014,11,13,07,50,3.20
2014,11,13,07,51,3.20
2014,11,13,07,52,3.20
2014,11,13,07,53,3.20
2014,11,13,07,54,3.30
2014,11,13,07,55,3.30
2014,11,13,07,56,3.30
2014,11,13,07,57,3.30
2014,11,13,07,58,3.30
2014,11,13,07,59,3.30
2014,11,13,08,00,3.30
2014,11,13,08,01,3.30
2014,11,13,08,02,3.30
2014,11,13,08,03,3.40
2014,11,13,08,04,3.40
2014,11,13,08,05,3.40
2014,11,13,08,06,3.40
2014,11,13,08,07,3.40
2014,11,13,08,08,3.40
2014,11,13,08,09,3.50
2014,11,13,08,10,3.50
2014,11,13,08,11,3.50
2014,11,13,08,12,3.50
2014,11,13,08,13,3.50
2014,11,13,08,14,3.50
2014,11,13,08,15,3.50
2014,11,13,08,16,3.50
2014,11,13,08,17,3.50
2014,11,13,08,18,3.50
2014,11,13,08,19,3.50
2014,11,13,08,20,3.60
2014,11,13,08,21,3.60
2014,11,13,08,22,3.60
2014,11,13,08,23,3.60
2014,11,13,08,24,3.70
2014,11,13,08,25,3.70
2014,11,13,08,26,3.70
2014,11,13,08,27,3.80
2014,11,13,08,28,3.80
2014,11,13,08,29,3.80
2014,11,13,08,30,3.80
2014,11,13,08,31,3.80
2014,11,13,08,32,3.80
2014,11,13,08,33,3.80
2014,11,13,08,34,3.90
2014,11,13,08,35,3.90
2014,11,13,08,36,3.90
2014,11,13,08,37,4.00
2014,11,13,08,38,4.00
2014,11,13,08,39,4.00
2014,11,13,08,40,4.00
2014,11,13,08,41,4.10
2014,11,13,08,42,4.10
2014,11,13,08,43,4.10
2014,11,13,08,44,4.10
2014,11,13,08,45,4.10
2014,11,13,08,46,4.20
2014,11,13,08,47,4.20
2014,11,13,08,48,4.20
2014,11,13,08,49,4.20
2014,11,13,08,50,4.20
2014,11,13,08,51,4.20
2014,11,13,08,52,4.20
2014,11,13,08,53,4.20
2014,11,13,08,54,4.20
2014,11,13,08,55,4.30
2014,11,13,08,56,4.30
2014,11,13,08,57,4.30
2014,11,13,08,58,4.30
2014,11,13,08,59,4.40
2014,11,13,09,00,4.40
2014,11,13,09,01,4.40
2014,11,13,09,02,4.40
2014,11,13,09,03,4.50
2014,11,13,09,04,4.50
2014,11,13,09,05,4.50
2014,11,13,09,06,4.50
2014,11,13,09,07,4.60
2014,11,13,09,08,4.60
2014,11,13,09,09,4.60
2014,11,13,09,10,4.60
2014,11,13,09,11,4.60
2014,11,13,09,12,4.70
2014,11,13,09,13,4.70
2014,11,13,09,14,4.70
2014,11,13,09,15,4.70
2014,11,13,09,16,4.70
2014,11,13,09,17,4.70
2014,11,13,09,18,4.80
2014,11,13,09,19,4.80
2014,11,13,09,20,4.80
2014,11,13,09,21,4.90
2014,11,13,09,22,4.90
2014,11,13,09,23,4.90
2014,11,13,09,24,4.90
2014,11,13,09,25,4.90
2014,11,13,09,26,4.90
2014,11,13,09,27,4.90
2014,11,13,09,28,4.90
2014,11,13,09,29,4.90
2014,11,13,09,30,4.90
2014,11,13,09,31,4.90
2014,11,13,09,32,4.90
2014,11,13,09,33,4.90
2014,11,13,09,34,4.90
2014,11,13,09,35,4.90
2014,11,13,09,36,4.90
2014,11,13,09,37,4.90
2014,11,13,09,38,4.90
2014,11,13,09,39,4.90
2014,11,13,09,40,4.90
2014,11,13,09,41,5.00
2014,11,13,09,42,5.10
2014,11,13,09,43,5.10
2014,11,13,09,44,5.10
2014,11,13,09,45,5.10
2014,11,13,09,46,5.10
2014,11,13,09,47,5.10
2014,11,13,09,48,5.10
2014,11,13,09,49,5.10
2014,11,13,09,50,5.10
2014,11,13,09,51,5.10
2014,11,13,09,52,5.10
2014,11,13,09,53,5.10
2014,11,13,09,54,5.10
2014,11,13,09,55,5.20
2014,11,13,09,56,5.20
2014,11,13,09,57,5.20
2014,11,13,09,58,5.20
2014,11,13,09,59,5.30
2014,11,13,10,00,5.30
2014,11,13,10,01,5.30
2014,11,13,10,02,5.40
2014,11,13,10,03,5.40
2014,11,13,10,04,5.40
2014,11,13,10,05,5.40
2014,11,13,10,06,5.50
2014,11,13,10,07,5.50
2014,11,13,10,08,5.60
2014,11,13,10,09,5.60
2014,11,13,10,10,5.60
2014,11,13,10,11,5.70
2014,11,13,10,12,5.70
2014,11,13,10,13,5.70
2014,11,13,10,14,5.70
2014,11,13,10,15,5.70
2014,11,13,10,16,5.80
2014,11,13,10,17,5.80
2014,11,13,10,18,5.90
2014,11,13,10,19,5.90
2014,11,13,10,20,5.90
2014,11,13,10,21,5.90
2014,11,13,10,22,5.90
2014,11,13,10,23,5.90
2014,11,13,10,24,5.90
2014,11,13,10,25,5.90
2014,11,13,10,26,6.00
2014,11,13,10,27,6.00
2014,11,13,10,28,6.10
2014,11,13,10,29,6.10
2014,11,13,10,30,6.10
2014,11,13,10,31,6.20
2014,11,13,10,32,6.20
2014,11,13,10,33,6.20
2014,11,13,10,34,6.20
2014,11,13,10,35,6.20
2014,11,13,10,36,6.20
2014,11,13,10,37,6.30
2014,11,13,10,38,6.30
2014,11,13,10,39,6.30
2014,11,13,10,40,6.30
2014,11,13,10,41,6.30
2014,11,13,10,42,6.20
2014,11,13,10,43,6.30
2014,11,13,10,44,6.30
2014,11,13,10,45,6.30
2014,11,13,10,46,6.30
2014,11,13,10,47,6.30
2014,11,13,10,48,6.30
2014,11,13,10,49,6.30
2014,11,13,10,50,6.30
2014,11,13,10,51,6.30
2014,11,13,10,52,6.30
2014,11,13,10,53,6.30
2014,11,13,10,54,6.30
2014,11,13,10,55,6.30
2014,11,13,10,56,6.30
2014,11,13,10,57,6.30
2014,11,13,10,58,6.30
2014,11,13,10,59,6.30
2014,11,13,11,00,6.30
2014,11,13,11,01,6.30
2014,11,13,11,02,6.40
2014,11,13,11,03,6.40
2014,11,13,11,04,6.40
2014,11,13,11,05,6.40
2014,11,13,11,06,6.40
2014,11,13,11,07,6.40
2014,11,13,11,08,6.40
2014,11,13,11,09,6.40
2014,11,13,11,10,6.50
2014,11,13,11,11,6.60
2014,11,13,11,12,6.60
2014,11,13,11,13,6.60
2014,11,13,11,14,6.60
2014,11,13,11,15,6.60
2014,11,13,11,16,6.60
2014,11,13,11,17,6.60
2014,11,13,11,18,6.60
2014,11,13,11,19,6.60
2014,11,13,11,20,6.60
2014,11,13,11,21,6.60
2014,11,13,11,22,6.50
2014,11,13,11,23,6.40
2014,11,13,11,24,6.40
2014,11,13,11,25,6.50
2014,11,13,11,26,6.60
2014,11,13,11,27,6.60
2014,11,13,11,28,6.60
2014,11,13,11,29,6.60
2014,11,13,11,30,6.60
2014,11,13,11,31,6.60
2014,11,13,11,32,6.70
2014,11,13,11,33,6.70
2014,11,13,11,34,6.80
2014,11,13,11,35,6.80
2014,11,13,11,36,6.80
2014,11,13,11,37,6.80
2014,11,13,11,38,6.80
2014,11,13,11,39,6.80
2014,11,13,11,40,6.90
2014,11,13,11,41,6.90
2014,11,13,11,42,6.90
2014,11,13,11,43,6.90
2014,11,13,11,44,6.90
2014,11,13,11,45,6.80
2014,11,13,11,46,6.80
2014,11,13,11,47,6.80
2014,11,13,11,48,6.80
2014,11,13,11,49,6.80
2014,11,13,11,50,6.80
2014,11,13,11,51,6.90
2014,11,13,11,52,7.00
2014,11,13,11,53,7.00
2014,11,13,11,54,7.00
2014,11,13,11,55,7.00
2014,11,13,11,56,7.00
2014,11,13,11,57,7.00
2014,11,13,11,58,7.00
2014,11,13,11,59,7.00
2014,11,13,12,00,7.00
2014,11,13,12,01,7.00
2014,11,13,12,02,6.90
2014,11,13,12,03,6.90
2014,11,13,12,04,6.90
2014,11,13,13,02,7.40
2014,11,13,13,03,7.40
2014,11,13,13,04,7.40
2014,11,13,13,05,7.30
2014,11,13,13,06,7.30
2014,11,13,13,07,7.30
2014,11,13,13,08,7.40
2014,11,13,13,09,7.40
2014,11,13,13,10,7.50
2014,11,13,13,11,7.60
2014,11,13,13,12,7.70
2014,11,13,13,13,7.70
2014,11,13,13,14,7.70
2014,11,13,13,15,7.60
2014,11,13,13,16,7.60
2014,11,13,13,17,7.50
2014,11,13,13,18,7.30
2014,11,13,13,19,7.30
2014,11,13,13,20,7.30
2014,11,13,13,21,7.20
2014,11,13,13,22,7.20
2014,11,13,13,23,7.30
2014,11,13,13,24,7.30
2014,11,13,13,25,7.30
2014,11,13,13,26,7.30
2014,11,13,13,27,7.40
2014,11,13,13,28,7.50
2014,11,13,13,29,7.60
2014,11,13,13,30,7.60
2014,11,13,13,31,7.70
2014,11,13,13,32,7.70
2014,11,13,13,33,7.60
2014,11,13,13,34,7.60
2014,11,13,13,35,7.50
2014,11,13,13,36,7.50
2014,11,13,13,37,7.50
2014,11,13,13,38,7.60
2014,11,13,13,39,7.60
2014,11,13,13,40,7.50
2014,11,13,13,41,7.40
2014,11,13,13,42,7.30
2014,11,13,13,43,7.30
2014,11,13,13,44,7.20
2014,11,13,13,45,7.20
2014,11,13,13,46,7.20
2014,11,13,13,47,7.20
2014,11,13,13,48,7.20
2014,11,13,13,49,7.30
2014,11,13,13,50,7.30
2014,11,13,13,51,7.30
2014,11,13,13,52,7.30
2014,11,13,13,53,7.30
2014,11,13,13,54,7.30
2014,11,13,13,55,7.30
2014,11,13,13,56,7.30
2014,11,13,13,57,7.40
2014,11,13,13,58,7.40
2014,11,13,13,59,7.40
2014,11,13,14,00,7.50
2014,11,13,14,01,7.50
2014,11,13,14,02,7.50
2014,11,13,14,03,7.60
2014,11,13,14,04,7.60
2014,11,13,14,05,7.60
2014,11,13,14,06,7.50
2014,11,13,14,07,7.50
2014,11,13,14,08,7.40
2014,11,13,14,09,7.40
2014,11,13,14,10,7.40
2014,11,13,14,11,7.30
2014,11,13,14,12,7.30
2014,11,13,14,13,7.30
2014,11,13,14,14,7.30
2014,11,13,14,15,7.30
2014,11,13,14,16,7.30
2014,11,13,14,17,7.40
2014,11,13,14,18,7.40
2014,11,13,14,19,7.40
2014,11,13,14,20,7.40
2014,11,13,14,21,7.40
2014,11,13,14,22,7.40
2014,11,13,14,23,7.40
2014,11,13,14,24,7.40
2014,11,13,14,25,7.40
2014,11,13,14,26,7.40
2014,11,13,14,27,7.40
2014,11,13,14,28,7.50
2014,11,13,14,29,7.50
2014,11,13,14,30,7.60
2014,11,13,14,31,7.60
2014,11,13,14,32,7.60
2014,11,13,14,33,7.60
2014,11,13,14,34,7.60
2014,11,13,14,35,7.70
2014,11,13,14,36,7.70
2014,11,13,14,37,7.60
2014,11,13,14,38,7.60
2014,11,13,14,39,7.60
2014,11,13,14,40,7.60
2014,11,13,14,41,7.60
2014,11,13,14,42,7.60
2014,11,13,14,43,7.60
2014,11,13,14,44,7.60
2014,11,13,14,45,7.60
2014,11,13,14,46,7.60
2014,11,13,14,47,7.60
2014,11,13,14,48,7.60
2014,11,13,14,49,7.60
2014,11,13,14,50,7.60
2014,11,13,14,51,7.70
2014,11,13,14,52,7.70
2014,11,13,14,53,7.70
2014,11,13,14,54,7.70
2014,11,13,14,55,7.70
2014,11,13,14,56,7.60
2014,11,13,14,57,7.60
2014,11,13,14,58,7.60
2014,11,13,14,59,7.60
2014,11,13,15,00,7.60
2014,11,13,15,01,7.60
2014,11,13,15,02,7.70
2014,11,13,15,03,7.70
2014,11,13,15,04,7.70
2014,11,13,15,05,7.70
2014,11,13,15,06,7.70
2014,11,13,15,07,7.70
2014,11,13,15,08,7.60
2014,11,13,15,09,7.60
2014,11,13,15,10,7.60
2014,11,13,15,11,7.60
2014,11,13,15,12,7.60
2014,11,13,15,13,7.60
2014,11,13,15,14,7.60
2014,11,13,15,15,7.60
2014,11,13,15,16,7.50
2014,11,13,15,17,7.50
2014,11,13,15,18,7.50
2014,11,13,15,19,7.50
2014,11,13,15,20,7.50
2014,11,13,15,21,7.50
2014,11,13,15,22,7.50
2014,11,13,15,23,7.50
2014,11,13,15,24,7.50
2014,11,13,15,25,7.50
2014,11,13,15,26,7.50
2014,11,13,15,27,7.40
2014,11,13,15,28,7.40
2014,11,13,15,29,7.40
2014,11,13,15,30,7.40
2014,11,13,15,31,7.40
2014,11,13,15,32,7.40
2014,11,13,15,33,7.40
2014,11,13,15,34,7.40
2014,11,13,15,35,7.40
2014,11,13,15,36,7.40
2014,11,13,15,37,7.40
2014,11,13,15,38,7.40
2014,11,13,15,39,7.40
2014,11,13,15,40,7.30
2014,11,13,15,41,7.30
2014,11,13,15,42,7.30
2014,11,13,15,43,7.30
2014,11,13,15,44,7.30
2014,11,13,15,45,7.30
2014,11,13,15,46,7.30
2014,11,13,15,47,7.30
2014,11,13,15,48,7.20
2014,11,13,15,49,7.20
2014,11,13,15,50,7.20
2014,11,13,15,51,7.20
2014,11,13,15,52,7.20
2014,11,13,15,53,7.20
2014,11,13,15,54,7.10
2014,11,13,15,55,7.10
2014,11,13,15,56,7.10
2014,11,13,15,57,7.10
2014,11,13,15,58,7.10
2014,11,13,15,59,7.00
2014,11,13,16,00,7.00
2014,11,13,16,01,7.00
2014,11,13,16,02,7.00
2014,11,13,16,03,7.00
2014,11,13,16,04,7.00
2014,11,13,17,02,5.80
2014,11,13,17,03,5.70
2014,11,13,17,04,5.70
2014,11,13,17,05,5.70
2014,11,13,17,06,5.70
2014,11,13,17,07,5.70
2014,11,13,17,08,5.70
2014,11,13,17,09,5.70
2014,11,13,17,10,5.70
2014,11,13,17,11,5.70
2014,11,13,17,12,5.60
2014,11,13,17,13,5.60
2014,11,13,17,14,5.60
2014,11,13,17,15,5.60
2014,11,13,17,16,5.50
2014,11,13,17,17,5.50
2014,11,13,17,18,5.50
2014,11,13,17,19,5.50
2014,11,13,17,20,5.50
2014,11,13,17,21,5.40
2014,11,13,17,22,5.40
2014,11,13,17,23,5.40
2014,11,13,17,24,5.40
2014,11,13,17,25,5.40
2014,11,13,17,26,5.40
2014,11,13,17,27,5.30
2014,11,13,17,28,5.30
2014,11,13,17,29,5.30
2014,11,13,17,30,5.30
2014,11,13,17,31,5.30
2014,11,13,17,32,5.30
2014,11,13,17,33,5.30
2014,11,13,17,34,5.30
2014,11,13,17,35,5.20
2014,11,13,17,36,5.20
2014,11,13,17,37,5.20
2014,11,13,17,38,5.20
2014,11,13,17,39,5.20
2014,11,13,17,40,5.10
2014,11,13,17,41,5.10
2014,11,13,17,42,5.10
2014,11,13,17,43,5.10
2014,11,13,17,44,5.10
2014,11,13,17,45,5.10
2014,11,13,17,46,5.00
2014,11,13,17,47,4.90
2014,11,13,17,48,4.90
2014,11,13,17,49,4.90
2014,11,13,17,50,4.80
2014,11,13,17,51,4.70
2014,11,13,17,52,4.70
2014,11,13,17,53,4.60
2014,11,13,17,54,4.60
2014,11,13,17,55,4.50
2014,11,13,17,56,4.50
2014,11,13,17,57,4.40
2014,11,13,17,58,4.30
2014,11,13,17,59,4.20
2014,11,13,18,00,4.20
2014,11,13,18,01,4.20
2014,11,13,18,02,4.10
2014,11,13,18,03,4.10
2014,11,13,18,04,4.00
2014,11,13,18,05,4.00
2014,11,13,18,06,3.90
2014,11,13,18,07,3.90
2014,11,13,18,08,3.80
2014,11,13,18,09,3.80
2014,11,13,18,10,3.80
2014,11,13,18,11,3.80
2014,11,13,18,12,3.80
2014,11,13,18,13,3.80
2014,11,13,18,14,3.80
2014,11,13,18,15,3.80
2014,11,13,18,16,3.80
2014,11,13,18,17,3.80
2014,11,13,18,18,3.80
2014,11,13,18,19,3.80
2014,11,13,18,20,3.80
2014,11,13,18,21,3.80
2014,11,13,18,22,3.90
2014,11,13,18,23,3.90
2014,11,13,18,24,3.90
2014,11,13,18,25,4.00
2014,11,13,18,26,4.00
2014,11,13,18,27,4.00
2014,11,13,18,28,3.90
2014,11,13,18,29,3.90
2014,11,13,18,30,3.90
2014,11,13,18,31,3.80
2014,11,13,18,32,3.80
2014,11,13,18,33,3.80
2014,11,13,18,34,3.80
2014,11,13,18,35,3.80
2014,11,13,18,36,3.80
2014,11,13,18,37,3.70
2014,11,13,18,38,3.70
2014,11,13,18,39,3.70
2014,11,13,18,40,3.70
2014,11,13,18,41,3.70
2014,11,13,18,42,3.60
2014,11,13,18,43,3.60
2014,11,13,18,44,3.60
2014,11,13,18,45,3.60
2014,11,13,18,46,3.50
2014,11,13,18,47,3.50
2014,11,13,18,48,3.50
2014,11,13,18,49,3.50
2014,11,13,18,50,3.50
2014,11,13,18,51,3.40
2014,11,13,18,52,3.40
2014,11,13,18,53,3.40
2014,11,13,18,54,3.30
2014,11,13,18,55,3.30
2014,11,13,18,56,3.30
2014,11,13,18,57,3.30
2014,11,13,18,58,3.30
2014,11,13,18,59,3.30
2014,11,13,19,00,3.30
2014,11,13,19,01,3.30
2014,11,13,19,02,3.30
2014,11,13,19,03,3.30
2014,11,13,19,04,3.30
2014,11,13,19,05,3.40
2014,11,13,19,06,3.40
2014,11,13,19,07,3.40
2014,11,13,19,08,3.30
2014,11,13,19,09,3.30
2014,11,13,19,10,3.30
2014,11,13,19,11,3.30
2014,11,13,19,12,3.30
2014,11,13,19,13,3.30
2014,11,13,19,14,3.30
2014,11,13,19,15,3.20
2014,11,13,19,16,3.20
2014,11,13,19,17,3.20
2014,11,13,19,18,3.10
2014,11,13,19,19,3.10
2014,11,13,19,20,3.10
2014,11,13,19,21,3.00
2014,11,13,19,22,2.90
2014,11,13,19,23,2.90
2014,11,13,19,24,2.90
2014,11,13,19,25,2.80
2014,11,13,19,26,2.80
2014,11,13,19,27,2.80
2014,11,13,19,28,2.70
2014,11,13,19,29,2.70
2014,11,13,19,30,2.70
2014,11,13,19,31,2.70
2014,11,13,19,32,2.70
2014,11,13,19,33,2.70
2014,11,13,19,34,2.70
2014,11,13,19,35,2.60
2014,11,13,19,36,2.60
2014,11,13,19,37,2.60
2014,11,13,19,38,2.60
2014,11,13,19,39,2.50
2014,11,13,19,40,2.50
2014,11,13,19,41,2.50
2014,11,13,19,42,2.50
2014,11,13,19,43,2.50
2014,11,13,19,44,2.40
2014,11,13,19,45,2.40
2014,11,13,19,46,2.40
2014,11,13,19,47,2.40
2014,11,13,19,48,2.40
2014,11,13,19,49,2.30
2014,11,13,19,50,2.30
2014,11,13,19,51,2.30
2014,11,13,19,52,2.30
2014,11,13,19,53,2.30
2014,11,13,19,54,2.30
2014,11,13,19,55,2.30
2014,11,13,19,56,2.30
2014,11,13,19,57,2.30
2014,11,13,19,58,2.30
2014,11,13,19,59,2.30
2014,11,13,20,00,2.30